Location: Denton Manor
(38.5571°N, 75.1052°W)
Time: 07:18:45
(UTC+00:00)

Envisat - Pass Details

Date: 11 October 2024
Orbit: 762 x 763 km, 98.3° (Epoch: 03 November)

Event Time Altitude Azimuth Distance (km) Brightness Sun altitude
Rises 07:45:17 0° 18° (NNE) 3,232 6.7 -39.2°
Reaches altitude 10° 07:47:39 10° 23° (NNE) 2,302 5.9 -38.7°
Enters shadow 07:48:45 17° 27° (NNE) 1,885 5.4 -38.5°
